Weather History for PAPG - May, 2013

Change the Weather History Date:

Tuesday, May 28, 2013

  Actual Average Record
Temperature  
Mean Temperature 56 °F -  
Max Temperature 69 °F 54 °F 71 °F (1990)
Min Temperature 44 °F 42 °F 40 °F (1985)
Degree Days  
Heating Degree Days 8    
Growing Degree Days 6 (Base 50)    
Moisture  
Dew Point 44 °F    
Average Humidity 63    
Maximum Humidity 93    
Minimum Humidity 37    
Precipitation  
Precipitation 0.00 in - - ()
Sea Level Pressure  
Sea Level Pressure 29.61 in    
Wind  
Wind Speed 3 mph (ENE)    
Max Wind Speed 8 mph    
Max Gust Speed -    
Visibility 10 miles    
Events      
Averages and records for this station are not official NWS values.
T = Trace of Precipitation, MM = Missing Value Source: NWS Daily Summary

Daily Weather History Graph

Daily Weather History Graph

Search for Another Location

Airport or City:

Trip Planner

Search our weather history database for the weather conditions in past years. The results will help you decide how hot, cold, wet, or windy it might be!

Date:

Astronomy

May. 28, 2013 Rise Set
Actual Time 4:12 AM AKDT 9:27 PM AKDT
Civil Twilight 3:13 AM AKDT 10:26 PM AKDT
Nautical Twilight 1:21 AM AKDT 12:16 AM AKDT
Astronomical Twilight Sun does not set Sun does not set
Moon No Moon Rise 8:32 AM AKDT (5/28)
Length of Visible Light 19h 13m
Length of Day
17h 14m
Waning Gibbous, 81% of the Moon is Illuminated
May 28
Waning Gibbous
May 31
Last Quarter
Jun 8
New
Jun 16
First Quarter
Jun 23
Full

Hourly Weather History & Observations

Time (AKDT) Temp. Windchill Dew Point Humidity Pressure Visibility Wind Dir Wind Speed Gust Speed Precip Events Conditions
12:16 AM 50.0 °F - 44.6 °F 82% 29.65 in 10.0 mi WSW 3.5 mph - N/A   Clear
12:36 AM 51.8 °F - 44.6 °F 76% 29.66 in 10.0 mi Calm Calm - N/A   Clear
12:56 AM 51.8 °F - 44.6 °F 76% 29.66 in 10.0 mi Calm Calm - N/A   Clear
1:16 AM 50.0 °F - 44.6 °F 82% 29.66 in 10.0 mi Calm Calm - N/A   Clear
1:36 AM 48.2 °F - 44.6 °F 87% 29.66 in 10.0 mi Calm Calm - N/A   Clear
1:56 AM 48.2 °F - 44.6 °F 87% 29.66 in 10.0 mi Calm Calm - N/A   Clear
2:16 AM 48.2 °F - 44.6 °F 87% 29.66 in 10.0 mi Calm Calm - N/A   Clear
2:36 AM 48.2 °F - 44.6 °F 87% 29.66 in 10.0 mi Calm Calm - N/A   Clear
2:56 AM 48.2 °F - 44.6 °F 87% 29.65 in 10.0 mi Calm Calm - N/A   Clear
3:16 AM 48.2 °F - 42.8 °F 82% 29.65 in 10.0 mi Calm Calm - N/A   Clear
3:36 AM 46.4 °F - 42.8 °F 87% 29.65 in 10.0 mi Calm Calm - N/A   Clear
3:56 AM 46.4 °F - 42.8 °F 87% 29.65 in 10.0 mi Calm Calm - N/A   Clear
4:16 AM 46.4 °F - 42.8 °F 87% 29.65 in 10.0 mi Calm Calm - N/A   Clear
4:36 AM 44.6 °F - 39.2 °F 81% 29.65 in 10.0 mi Calm Calm - N/A   Clear
4:56 AM 46.4 °F - 42.8 °F 87% 29.65 in 10.0 mi Calm Calm - N/A   Clear
5:16 AM 46.4 °F 44.3 °F 42.8 °F 87% 29.65 in 10.0 mi WSW 4.6 mph - N/A   Clear
5:36 AM 46.4 °F 45.2 °F 44.6 °F 93% 29.65 in 10.0 mi SW 3.5 mph - N/A   Clear
5:56 AM 48.2 °F - 44.6 °F 87% 29.65 in 10.0 mi Calm Calm - N/A   Partly Cloudy
6:16 AM 51.8 °F - 46.4 °F 82% 29.65 in 10.0 mi Calm Calm - N/A   Partly Cloudy
6:36 AM 53.6 °F - 44.6 °F 72% 29.65 in 10.0 mi Calm Calm - N/A   Partly Cloudy
6:56 AM 50.0 °F - 44.6 °F 82% 29.65 in 10.0 mi ENE 3.5 mph - N/A   Scattered Clouds
7:36 AM 55.4 °F - 44.6 °F 67% 29.65 in 10.0 mi NE 4.6 mph - N/A   Scattered Clouds
7:55 AM 57.2 °F - 42.8 °F 59% 29.65 in 10.0 mi NE 8.1 mph - N/A   Partly Cloudy
8:16 AM - - - N/A% 29.63 in 10.0 mi East 3.5 mph - N/A   Partly Cloudy
8:36 AM 57.2 °F - 44.6 °F 63% 29.64 in 10.0 mi ENE 3.5 mph - N/A   Partly Cloudy
8:56 AM 57.2 °F - 44.6 °F 63% 29.64 in - NE 5.8 mph - N/A   Partly Cloudy
9:16 AM 57.2 °F - 46.4 °F 67% 29.64 in 10.0 mi NE 5.8 mph - N/A   Partly Cloudy
9:36 AM 57.2 °F - 46.4 °F 67% 29.63 in 10.0 mi NE 5.8 mph - N/A   Partly Cloudy
9:56 AM 59.0 °F - 46.4 °F 63% 29.63 in 10.0 mi ENE 5.8 mph - N/A   Partly Cloudy
10:16 AM 59.0 °F - 46.4 °F 63% 29.63 in 10.0 mi ENE 4.6 mph - N/A   Partly Cloudy
10:36 AM 60.8 °F - 44.6 °F 55% 29.63 in 10.0 mi East 5.8 mph - N/A   Partly Cloudy
10:56 AM 62.6 °F - 44.6 °F 52% 29.63 in 10.0 mi NE 5.8 mph - N/A   Partly Cloudy
11:16 AM - - - N/A% 29.62 in 10.0 mi ENE 4.6 mph - N/A   Partly Cloudy
11:56 AM 64.4 °F - 44.6 °F 49% 29.62 in 10.0 mi ENE 5.8 mph - N/A   Partly Cloudy
12:16 PM 64.4 °F - 46.4 °F 52% 29.62 in 10.0 mi East 4.6 mph - N/A   Partly Cloudy
12:36 PM 64.4 °F - 44.6 °F 49% 29.61 in 10.0 mi East 5.8 mph - N/A   Partly Cloudy
12:56 PM 64.4 °F - 44.6 °F 49% 29.61 in 10.0 mi NE 8.1 mph - N/A   Partly Cloudy
1:16 PM 64.4 °F - 46.4 °F 52% 29.60 in 10.0 mi ENE 5.8 mph - N/A   Partly Cloudy
1:36 PM 64.4 °F - 46.4 °F 52% 29.60 in 10.0 mi NE 6.9 mph - N/A   Partly Cloudy
1:56 PM 64.4 °F - 44.6 °F 49% 29.60 in 10.0 mi NE 6.9 mph - N/A   Partly Cloudy
2:16 PM 66.2 °F - 44.6 °F 46% 29.59 in 10.0 mi ENE 6.9 mph - N/A   Partly Cloudy
2:36 PM 66.2 °F - 46.4 °F 49% 29.59 in 10.0 mi ENE 6.9 mph - N/A   Partly Cloudy
2:56 PM 66.2 °F - 44.6 °F 46% 29.59 in 10.0 mi ENE 4.6 mph - N/A   Scattered Clouds
3:16 PM 68.0 °F - 44.6 °F 43% 29.58 in 10.0 mi East 4.6 mph - N/A   Scattered Clouds
3:36 PM - - - N/A% 29.57 in - ENE 4.6 mph - N/A   Unknown
3:56 PM 69.8 °F - 44.6 °F 40% 29.57 in - ENE 5.8 mph - N/A   Scattered Clouds
4:16 PM 69.8 °F - 44.6 °F 40% 29.56 in 10.0 mi ENE 5.8 mph - N/A   Scattered Clouds
4:36 PM 66.2 °F - 44.6 °F 46% 29.56 in 10.0 mi ENE 5.8 mph - N/A   Scattered Clouds
4:56 PM 66.2 °F - 42.8 °F 43% 29.56 in 10.0 mi East 6.9 mph - N/A   Partly Cloudy
5:16 PM 69.8 °F - 42.8 °F 38% 29.56 in 10.0 mi ESE 5.8 mph - N/A   Partly Cloudy
5:36 PM 69.8 °F - 42.8 °F 38% 29.55 in 10.0 mi East 4.6 mph - N/A   Partly Cloudy
5:56 PM 64.4 °F - 42.8 °F 45% 29.55 in 10.0 mi East 5.8 mph - N/A   Partly Cloudy
6:16 PM 66.2 °F - 42.8 °F 43% 29.55 in 10.0 mi East 4.6 mph - N/A   Partly Cloudy
6:56 PM 66.2 °F - 42.8 °F 43% 29.54 in 10.0 mi ENE 4.6 mph - N/A   Partly Cloudy
7:16 PM 66.2 °F - 42.8 °F 43% 29.54 in 10.0 mi Calm Calm - N/A   Partly Cloudy
7:36 PM 66.2 °F - 39.2 °F 37% 29.54 in 10.0 mi Calm Calm - N/A   Partly Cloudy
7:56 PM 64.4 °F - 42.8 °F 45% 29.54 in 10.0 mi SE 4.6 mph - N/A   Clear
8:16 PM 62.6 °F - 42.8 °F 48% 29.54 in 10.0 mi Calm Calm - N/A   Clear
8:36 PM 60.8 °F - 44.6 °F 55% 29.55 in 10.0 mi Calm Calm - N/A   Clear
8:56 PM 59.0 °F - 42.8 °F 55% 29.55 in 10.0 mi East 3.5 mph - N/A   Mostly Cloudy
9:16 PM 57.2 °F - 42.8 °F 59% 29.56 in 10.0 mi SSE 3.5 mph - N/A   Mostly Cloudy
9:36 PM 57.2 °F - 44.6 °F 63% 29.56 in 10.0 mi Calm Calm - N/A   Mostly Cloudy
9:56 PM 57.2 °F - 44.6 °F 63% 29.57 in 10.0 mi Calm Calm - N/A   Mostly Cloudy
10:16 PM 57.2 °F - 42.8 °F 59% 29.57 in 10.0 mi Calm Calm - N/A   Scattered Clouds
10:36 PM 57.2 °F - 44.6 °F 63% 29.57 in 10.0 mi Calm Calm - N/A   Mostly Cloudy
10:56 PM 57.2 °F - 42.8 °F 59% 29.57 in 10.0 mi East 3.5 mph - N/A   Overcast
11:16 PM 55.4 °F - 42.8 °F 63% 29.58 in 10.0 mi Calm Calm - N/A   Overcast
11:36 PM 55.4 °F - 44.6 °F 67% 29.59 in 10.0 mi Calm Calm - N/A   Overcast
11:56 PM 55.4 °F - 44.6 °F 67% 29.59 in 10.0 mi Calm Calm - N/A   Mostly Cloudy